Dewpoint
61 64 68 66 66 67 68 68 68 69 70 69 68 68 68 69 69 69 69 68 68 68 68 67 66 67 67 68 68 69 69 69 69 69 70 70 69 69 68 68 68 69 70
60 65 67 67 66 67 69 68 69 70 70 69 68 68 67 68 69 69 68 68 67 67 67 66 66 67 67 68 69 69 69 69 69 69 69 69 69 69 68 67 69 69 70
60 64 67 66 66 68 69 69 70 70 70 69 68 67 67 66 67 68 68 68 67 67 67 66 66 67 68 69 69 69 69 69 69 69 68 67 68 68 68 69 70 69 69
60 64 64 66 66 67 68 69 70 69 69 68 68 66 65 66 66 67 67 66 67 66 65 65 65 68 68 69 69 68 68 69 67 67 64 65 66 69 69 69 69 69 69
60 63 64 66 65 66 68 68 69 68 68 67 67 65 65 66 66 66 66 66 66 66 66 65 65 67 69 68 69 68 68 67 66 65 65 66 67 68 69 69 69 69 68
59 61 66 66 66 66 67 68 68 68 67 67 66 65 65 66 66 65 64 64 66 66 65 65 66 67 68 68 68 68 68 65 65 64 65 66 67 68 68 68 68 68 68
58 60 64 65 65 66 66 67 67 67 67 66 65 65 65 66 66 65 66 66 65 65 66 66 67 68 68 68 68 68 66 65 64 65 65 67 68 68 68 67 67 67 68
58 60 62 65 64 65 65 65 65 65 66 66 65 65 65 65 66 64 65 65 62 65 65 65 66 67 67 68 67 66 66 65 64 65 66 67 67 67 67 68 67 67 67
57 59 59 62 63 63 63 64 65 66 66 65 65 65 65 65 65 65 65 64 63 62 64 66 67 66 66 67 66 65 65 64 65 66 67 67 67 67 67 66 66 66 66
56 57 58 58 60 61 61 64 62 63 65 65 64 65 64 62 62 63 64 65 64 64 65 65 66 66 65 65 65 64 63 64 66 66 66 66 67 66 66 66 65 65 65
58 58 58 58 59 60 59 62 64 65 64 63 64 63 62 62 62 62 63 65 65 64 64 66 64 63 64 64 63 63 64 65 65 65 65 65 65 66 65 64 64 63 63
58 60 59 59 59 57 60 62 63 63 62 61 60 62 61 62 61 61 63 65 63 65 66 66 65 63 62 62 62 63 63 63 63 63 64 63 63 63 62 62 61 61 61
58 60 60 59 58 60 61 61 60 60 59 59 59 60 61 61 60 60 59 57 61 64 62 61 60 59 59 60 61 63 63 62 62 62 62 62 61 60 60 59 59 58 58
58 59 60 59 59 59 60 60 59 59 58 58 59 59 58 57 57 58 57 55 54 58 57 59 58 58 59 60 62 62 60 60 59 58 59 58 58 58 58 57 56 56 56
57 58 59 60 59 59 59 58 58 58 57 57 58 58 56 53 54 53 54 54 54 54 55 56 57 58 58 59 60 59 58 57 56 56 57 57 56 54 55 54 53 52 52
56 57 59 59 57 58 58 58 57 57 57 56 55 55 56 52 50 52 51 52 52 53 53 54 54 55 56 56 56 55 55 55 54 53 54 54 54 54 53 52 52 51 50
55 57 58 59 57 57 58 57 57 56 56 55 53 51 48 49 47 44 47 49 50 51 52 52 51 52 53 54 53 52 52 52 51 50 50 49 50 52 51 49 50 50 49
54 56 58 58 56 56 57 56 56 55 55 54 52 50 47 42 42 42 43 45 49 51 51 51 50 49 50 50 49 49 48 49 48 48 47 47 48 49 50 49 49 48 48
52 55 58 58 57 56 56 56 55 56 55 55 53 49 44 38 37 38 42 45 48 50 51 51 50 48 45 43 42 42 44 45 45 44 43 43 45 47 48 48 48 47 47
44 54 58 57 58 56 55 55 55 54 53 52 52 50 45 40 32 35 41 45 48 49 50 50 48 46 41 37 34 33 33 37 39 38 36 35 38 41 44 44 45 47 46
37 39 51 57 57 56 53 52 53 52 50 49 49 49 47 41 32 31 40 44 46 48 49 49 48 42 38 34 33 30 28 28 31 32 30 26 28 33 34 38 42 44 45
31 32 35 46 56 56 53 52 52 52 49 48 47 47 45 39 33 29 35 42 44 46 47 46 44 41 38 41 41 38 36 31 26 24 24 21 19 22 24 27 26 36 37
27 29 32 36 40 55 53 52 51 50 48 46 45 45 43 40 35 30 31 37 43 44 44 43 42 41 42 37 38 38 38 37 27 23 21 17 18 19 19 19 23 29 33
26 28 30 33 37 47 54 52 50 48 46 46 45 43 41 39 35 31 30 32 39 43 44 44 43 43 39 38 26 24 24 29 29 22 21 19 18 18 20 18 22 23 23
25 26 28 31 35 46 54 51 48 48 46 45 44 41 37 34 30 29 28 31 36 39 43 44 43 42 39 36 29 25 23 24 22 21 20 19 19 20 20 20 21 20 23
23 25 26 28 31 34 52 50 48 48 46 45 43 39 34 32 29 28 28 29 32 37 40 40 40 40 36 34 26 23 22 21 21 22 20 19 18 19 20 20 20 21 22
Wind_Speed
9 17 19 17 16 14 15 12 12 13 12 11 10 9 8 8 9 9 8 8 9 11 11 12 15 14 14 15 14 14 13 13 14 15 16 17 19 21 22 18 20 21 21
14 18 19 17 16 13 11 11 11 12 12 11 10 9 8 8 9 9 9 9 9 10 12 14 17 16 16 16 16 15 14 14 16 17 17 17 18 20 19 18 23 22 22
15 18 19 16 15 13 10 10 11 11 11 11 9 8 7 7 9 9 9 9 10 11 11 13 17 17 17 17 17 17 16 16 17 21 21 18 18 17 19 24 22 23 25
14 18 18 17 15 13 9 7 10 10 10 9 8 8 7 7 8 10 10 10 10 11 11 13 16 17 18 18 18 19 19 18 20 20 15 18 18 19 21 22 23 24 24
14 16 17 17 15 14 11 6 8 9 8 8 7 8 9 10 10 10 9 8 9 10 11 11 18 20 19 19 20 19 18 17 21 15 16 16 15 21 22 23 23 24 23
15 15 20 16 14 11 9 10 8 9 8 8 8 9 11 12 12 10 7 6 5 6 11 16 19 20 20 20 21 20 17 14 10 16 17 18 17 22 22 22 22 26 25
15 14 16 16 15 13 10 8 7 6 8 8 8 9 10 12 12 11 8 8 6 5 10 19 22 24 20 21 22 20 16 11 15 14 15 15 17 22 23 23 23 25 28
14 13 15 14 14 11 10 8 6 7 6 7 7 10 12 12 12 10 9 7 6 7 9 19 27 24 21 21 21 19 15 15 16 14 15 14 20 23 23 24 23 24 25
14 13 13 14 13 10 9 6 7 6 5 6 6 8 10 7 5 9 12 10 9 8 10 12 24 23 19 17 13 11 10 17 16 15 16 15 23 26 27 27 27 28 28
13 13 13 13 14 13 11 8 6 6 5 7 4 7 15 12 4 6 8 13 13 12 21 23 30 20 21 18 16 17 16 20 18 18 15 19 26 29 30 30 30 29 29
13 12 13 13 13 12 11 9 7 14 15 12 12 15 13 7 4 2 13 12 17 10 24 30 35 25 21 22 17 18 15 14 17 15 16 27 29 30 30 29 29 28 27
17 14 12 14 13 12 9 11 11 12 10 10 9 11 7 9 10 8 9 21 22 25 28 34 34 25 18 15 15 15 15 18 17 18 20 29 30 29 29 27 27 26 25
15 13 15 14 14 12 13 12 8 6 7 6 7 9 10 6 7 8 13 12 11 27 20 23 20 16 16 16 16 15 17 16 15 19 22 28 28 27 27 25 24 22 22
18 14 13 13 14 14 12 13 11 9 8 8 4 10 8 7 6 9 12 18 12 19 23 16 17 18 18 16 16 15 17 18 18 18 20 26 27 25 25 23 22 21 21
18 15 14 17 17 14 14 11 12 9 8 10 9 10 10 9 9 8 13 16 13 16 21 18 18 19 15 16 15 19 21 21 22 19 19 26 24 23 23 22 20 21 20
19 17 13 17 17 15 14 12 12 11 13 10 9 8 12 11 11 10 12 15 15 17 15 17 17 17 14 16 15 19 20 20 21 20 18 21 21 21 21 20 20 19 18
17 17 16 16 16 16 16 14 12 10 11 11 10 10 11 11 12 12 13 14 15 16 18 17 17 16 18 17 15 17 17 18 19 19 17 18 16 18 19 19 18 18 17
14 15 16 14 15 16 15 14 12 13 11 12 10 11 12 13 12 13 14 14 13 17 17 17 17 18 18 17 15 15 15 15 16 19 17 15 13 14 16 17 17 17 17
13 12 16 19 17 16 17 15 13 15 12 12 14 13 14 16 14 15 14 14 14 16 17 18 16 18 20 19 18 16 15 15 14 14 16 14 13 14 12 18 17 15 15
31 6 13 18 16 17 16 13 13 13 13 13 14 15 18 16 17 16 14 15 14 15 16 16 20 16 19 20 20 18 14 12 12 12 14 13 12 12 11 11 12 13 15
26 25 17 17 17 17 17 16 15 15 15 14 14 18 19 18 20 17 16 16 14 15 14 16 18 23 18 20 17 18 16 12 10 10 11 11 11 11 10 9 10 10 12
27 27 24 18 20 17 18 16 12 15 15 14 13 17 17 19 19 19 19 17 17 17 15 17 21 19 17 14 11 12 6 6 8 8 7 9 10 9 9 9 8 8 8
29 29 25 23 24 18 19 17 14 14 13 15 16 16 16 18 17 17 18 18 18 16 18 19 20 23 18 5 11 6 7 5 10 4 5 6 8 8 9 8 8 7 9
29 27 26 24 23 17 21 21 24 22 23 18 18 16 17 18 17 17 18 18 18 16 18 17 17 16 17 17 8 6 6 13 6 7 3 5 5 8 8 7 8 7 7
27 27 27 26 22 20 22 22 24 22 18 18 17 20 18 17 17 17 18 20 19 16 17 17 19 15 15 15 11 8 8 8 9 6 7 7 4 6 6 6 6 5 5
28 28 28 29 25 29 17 22 25 26 24 21 21 20 17 17 17 17 17 17 17 16 17 16 13 14 13 14 12 11 12 6 11 5 5 11 11 7 6 5 6 6 6
Wind_Direction
166 150 168 167 168 175 176 186 196 194 192 184 194 195 194 193 191 190 192 196 200 194 186 180 163 152 146 141 137 128 123 123 122 120 121 123 125 125 128 131 118 111 107
156 154 168 166 169 177 169 189 202 201 185 188 198 197 199 203 206 197 195 200 208 205 194 181 168 155 152 143 134 131 133 132 129 124 123 121 125 128 134 131 111 115 109
151 154 166 164 170 173 179 193 217 180 182 189 195 194 199 214 213 203 199 205 204 204 205 192 176 161 148 141 139 135 130 127 127 130 138 130 128 129 119 108 115 116 110
155 156 165 168 168 173 167 198 188 178 181 182 180 192 204 204 203 204 202 201 199 199 200 194 178 156 150 145 142 136 136 139 143 146 137 131 135 129 122 119 122 118 113
159 160 159 167 171 173 161 139 164 172 177 180 185 201 209 200 197 193 186 181 190 195 185 186 183 159 152 149 142 138 144 156 158 146 122 121 129 133 128 128 122 120 118
162 162 143 166 169 173 162 162 167 174 181 178 193 211 217 206 204 191 188 210 188 180 181 178 178 165 152 151 141 145 147 156 131 109 114 123 126 131 129 124 122 117 112
165 162 156 170 173 173 176 165 158 181 185 184 209 220 221 214 206 213 198 177 176 188 176 166 167 162 154 151 142 146 147 131 116 111 118 118 122 121 114 108 109 109 104
167 164 157 172 178 174 174 184 183 214 196 195 207 225 227 225 214 218 196 211 204 165 183 173 174 143 160 145 142 142 138 125 118 115 115 115 122 116 110 104 99 99 102
167 172 165 176 180 187 179 186 218 224 192 200 197 224 231 235 217 237 229 219 216 210 153 131 122 120 122 101 101 97 120 121 109 104 104 110 111 110 106 104 98 97 96
175 179 178 172 176 177 176 175 192 203 215 122 162 138 117 103 112 224 210 213 198 154 153 139 128 139 113 108 97 88 105 105 103 97 97 112 107 104 100 97 93 90 87
187 184 188 178 179 171 168 149 161 131 120 119 130 133 144 117 75 329 220 166 143 171 173 160 136 134 113 97 90 86 97 88 92 90 99 102 100 97 94 93 90 89 88
190 197 183 179 171 171 132 132 141 142 149 139 153 156 113 101 73 52 202 152 143 131 146 146 125 115 110 109 88 77 82 91 83 92 88 91 93 93 91 89 88 87 89
194 190 187 185 169 148 147 143 150 150 137 114 140 119 101 104 47 60 88 64 111 126 100 102 104 106 105 110 101 99 96 88 92 89 95 95 93 91 91 90 90 92 92
192 189 187 189 170 171 163 155 156 163 139 111 141 129 115 106 80 70 91 93 58 94 99 107 106 104 101 96 107 99 95 91 89 91 90 91 94 95 93 96 96 93 91
196 189 200 187 184 163 172 165 146 159 141 136 155 150 117 104 98 85 89 98 94 88 100 108 115 115 112 119 121 114 102 97 94 91 84 86 90 97 97 97 98 96 95
196 188 188 205 184 167 164 159 154 159 128 138 131 123 143 118 107 114 105 103 95 100 97 110 114 112 107 106 113 114 112 110 106 101 94 84 88 96 98 99 98 98 98
204 176 184 208 186 179 164 145 148 144 143 141 132 115 112 121 122 114 116 109 111 111 111 107 102 101 98 94 92 110 108 107 109 110 101 94 82 79 99 99 98 98 99
213 190 173 198 195 180 166 146 153 144 146 140 132 126 129 116 123 116 114 116 115 117 115 113 116 109 107 105 101 93 95 99 98 99 107 108 103 86 73 94 100 102 100
218 179 180 189 202 178 165 154 149 154 155 160 148 141 135 128 121 120 120 117 119 120 119 120 115 118 109 104 93 77 86 92 96 101 98 91 90 95 87 78 76 89 100
359 163 193 188 213 175 162 157 147 166 159 161 157 155 146 139 126 121 124 123 118 115 114 113 119 113 113 109 96 82 70 67 90 97 100 99 98 101 106 109 86 66 81
353 355 317 186 201 175 166 162 156 170 160 163 159 155 156 151 142 131 133 134 127 129 125 126 120 122 118 124 110 89 75 79 88 93 98 100 98 98 102 96 102 100 80
346 345 336 332 193 196 170 172 169 171 166 160 153 160 158 156 151 146 146 146 141 135 135 140 138 130 136 175 129 113 115 86 64 71 86 108 107 106 100 96 97 104 103
349 342 335 324 318 193 173 166 168 161 162 159 165 162 159 159 158 152 155 155 156 148 152 149 144 144 154 120 134 113 141 159 130 102 105 116 121 115 109 108 109 104 95
346 340 335 329 318 282 182 171 172 173 173 174 168 163 163 163 164 161 157 159 157 158 157 160 151 152 151 150 98 67 65 127 156 153 164 138 140 132 128 130 124 126 122
350 347 341 336 328 309 187 175 177 176 179 169 166 165 165 163 165 165 163 158 160 159 160 160 159 160 164 153 151 142 115 108 130 147 150 160 143 135 131 124 115 124 118
356 356 352 348 344 345 200 181 189 185 172 171 170 168 168 165 164 168 169 163 161 158 158 157 158 159 157 162 142 153 152 158 168 146 123 147 139 160 142 146 156 149 148